This demonstration page uses our WeatherBlox Daily Observations layout. Learn more.

Left ArrowRight Arrow

39.51506, -84.39828

Hourly Observations for May 1, 2020

Temp ( °F °C ) Dew Point ( °F °C ) Humidity (%) Winds ( mph kmh ) Pressure ( in mb ) Visibility ( mi km ) Precip ( " mm )
12:15 am 00:15 Cloudy 47 8.6 42 5.5 81 81 WSW 6 9 29.84 1011 N/A 0 0
12:35 am 00:35 Cloudy 47 8.6 42 5.3 80 80 W 7 11 29.84 1011 N/A 0 0
12:55 am 00:55 Cloudy 48 8.7 42 5.3 79 79 WNW 6 9 29.84 1011 N/A 0 0
1:15 am 01:15 Cloudy 48 8.8 41 5.2 78 78 W 6 9 29.85 1011 N/A 0 0
1:35 am 01:35 Cloudy 47 8.3 42 5.8 84 84 NW 7 11 29.85 1011 N/A 0 0
1:55 am 01:55 Cloudy 46 7.9 43 6.1 89 89 NW 6 9 29.86 1011 N/A 0 0
2:15 am 02:15 Cloudy 46 7.9 43 6.2 89 89 Calm 29.86 1011 N/A 0 0
2:35 am 02:35 Cloudy 46 7.9 43 6.3 90 90 WNW 6 9 29.86 1011 N/A 0 0
2:55 am 02:55 Cloudy 47 8.1 43 5.9 86 86 NW 10 17 29.87 1012 N/A 0 0
3:15 am 03:15 Cloudy 47 8.2 42 5.6 84 84 NW 12 19 29.87 1012 N/A 0 0
3:35 am 03:35 Cloudy 47 8.2 42 5.6 84 84 NNW 9 15 29.87 1012 N/A 0 0
3:55 am 03:55 Cloudy 47 8.3 42 5.6 83 83 NNW 8 13 29.88 1012 N/A 0 0
4:15 am 04:15 Cloudy 47 8.3 42 5.5 83 83 NNW 10 17 29.88 1012 N/A 0 0
4:35 am 04:35 Cloudy 47 8.3 42 5.3 82 82 NNW 12 19 29.9 1013 N/A 0 0
4:55 am 04:55 Cloudy 47 8.3 42 5.4 82 82 NNW 7 11 29.91 1013 N/A 0 0
5:15 am 05:15 Cloudy 47 8.3 42 5.3 82 82 NNW 10 17 29.91 1013 N/A 0 0
5:35 am 05:35 Cloudy 47 8.3 42 5.5 83 83 NNW 7 11 29.91 1013 N/A 0 0
5:55 am 05:55 Cloudy 47 8.2 42 5.4 83 83 NNW 8 13 29.91 1013 N/A 0 0
6:15 am 06:15 Cloudy 47 8.1 42 5.5 84 84 NW 6 9 29.92 1013 N/A 0 0
6:35 am 06:35 Cloudy 46 8 42 5.4 84 84 NW 5 7 29.93 1014 N/A 0 0
6:55 am 06:55 Cloudy 46 8 42 5.4 84 84 WNW 6 9 29.94 1014 N/A 0 0
7:15 am 07:15 Cloudy 46 8 42 5.4 84 84 NW 6 9 29.96 1015 N/A 0 0
7:35 am 07:35 Cloudy 46 8 42 5.4 84 84 NW 7 11 29.96 1015 N/A 0 0
7:55 am 07:55 Cloudy 47 8.2 42 5.4 83 83 NNW 6 9 29.98 1015 N/A 0 0
8:15 am 08:15 Cloudy 47 8.3 42 5.3 82 82 NNW 12 19 29.99 1016 N/A 0 0
8:35 am 08:35 Cloudy 47 8.2 42 5.5 83 83 NNW 10 17 30 1016 N/A 0 0
8:55 am 08:55 Cloudy 47 8.3 42 5.5 83 83 NNW 10 17 30.01 1016 N/A 0 0
9:15 am 09:15 Cloudy 47 8.3 42 5.5 83 83 NNW 8 13 30.03 1017 N/A 0 0
9:35 am 09:35 Cloudy 47 8.4 42 5.4 82 82 NNW 8 13 30.03 1017 N/A 0 0
9:55 am 09:55 Cloudy 48 8.7 42 5.5 81 81 NNW 5 7 30.03 1017 N/A 0 0
10:15 am 10:15 Cloudy 49 9.3 42 5.7 78 78 N 9 15 30.04 1017 N/A 0 0
10:35 am 10:35 Cloudy 49 9.6 42 5.5 76 76 NW 8 13 30.05 1018 N/A 0 0
10:55 am 10:55 Cloudy 50 10.1 42 5.6 74 74 NW 8 13 30.05 1018 N/A 0 0
11:15 am 11:15 Cloudy 51 10.4 42 5.8 73 73 NNW 5 7 30.05 1018 N/A 0 0
11:35 am 11:35 Cloudy 52 11 43 6 72 72 NW 5 7 30.06 1018 N/A 0 0
11:55 am 11:55 Mostly Cloudy 55 12.7 44 6.8 68 68 NNE 8 13 30.05 1018 N/A 0 0
12:15 pm 12:15 Partly Cloudy 55 13 44 6.6 65 65 N 7 11 30.05 1018 N/A 0 0
12:35 pm 12:35 Cloudy 56 13.1 45 7 67 67 WNW 12 19 30.06 1018 N/A 0 0
12:55 pm 12:55 Partly Cloudy 59 15 46 7.5 61 61 N 8 13 30.05 1017 N/A 0 0
1:15 pm 13:15 Partly Cloudy 58 14.4 44 6.6 60 60 N 6 9 30.05 1018 N/A 0 0
1:35 pm 13:35 Mostly Cloudy 59 15 46 7.8 62 62 NW 8 13 30.05 1017 N/A 0 0
1:55 pm 13:55 Partly Cloudy 60 15.7 45 7.2 57 57 NNE 6 9 30.03 1017 N/A 0 0
2:15 pm 14:15 Sunny 61 16.3 45 7.4 56 56 N 5 7 30.03 1017 N/A 0 0
2:35 pm 14:35 Sunny 63 17 46 7.7 55 55 N 8 13 30.03 1017 N/A 0 0
2:55 pm 14:55 Mostly Cloudy 62 16.8 45 7.4 54 54 N 12 19 30.03 1017 N/A 0 0
3:15 pm 15:15 Sunny 64 17.5 44 6.9 50 50 NW 8 13 30.03 1017 N/A 0 0
3:35 pm 15:35 Sunny 64 17.8 46 7.6 51 51 W 5 7 30.03 1017 N/A 0 0
3:55 pm 15:55 Sunny 65 18.3 45 7.1 48 48 WNW 8 13 30.02 1017 N/A 0 0
4:15 pm 16:15 Sunny 66 18.7 43 6.1 44 44 N 9 15 30.02 1017 N/A 0 0
4:35 pm 16:35 Sunny 66 18.8 40 4.5 39 39 NNW 6 9 30.02 1017 N/A 0 0
4:55 pm 16:55 Sunny 67 19.3 41 5.1 39 39 W 3 6 30.01 1016 N/A 0 0
5:15 pm 17:15 Sunny 67 19.3 39 4 37 37 N 7 11 30.01 1016 N/A 0 0
5:35 pm 17:35 Sunny 67 19.3 38 3.3 35 35 Calm 30.01 1016 N/A 0 0
5:55 pm 17:55 Sunny 67 19.5 38 3.5 35 35 NW 8 13 30.02 1016 N/A 0 0
6:15 pm 18:15 Sunny 67 19.6 38 3.2 34 34 NW 8 13 30.02 1016 N/A 0 0
6:35 pm 18:35 Sunny 67 19.3 37 3 34 34 W 7 11 30.02 1016 N/A 0 0
6:55 pm 18:55 Sunny 67 19.2 38 3.5 35 35 W 5 7 30.03 1017 N/A 0 0
7:15 pm 19:15 Sunny 66 18.7 38 3.3 36 36 W 7 11 30.03 1017 N/A 0 0
7:35 pm 19:35 Sunny 64 17.5 39 4 41 41 WNW 6 9 30.04 1017 N/A 0 0
7:55 pm 19:55 Sunny 63 17.3 37 2.7 38 38 Calm 30.05 1018 N/A 0 0
8:15 pm 20:15 Sunny 59 15.2 43 6.1 55 55 W 3 6 30.07 1018 N/A 0 0
8:35 pm 20:35 Clear 57 13.8 45 7.2 65 65 Calm 30.07 1018 N/A 0 0
8:55 pm 20:55 Clear 55 13 46 8 72 72 Calm 30.07 1018 N/A 0 0
9:15 pm 21:15 Clear 55 12.7 48 8.9 78 78 Calm 30.07 1018 N/A 0 0
9:35 pm 21:35 Clear 54 12.4 46 7.9 74 74 Calm 30.07 1018 N/A 0 0
9:55 pm 21:55 Clear 55 12.5 45 7.1 70 70 Calm 30.08 1019 N/A 0 0
10:15 pm 22:15 Clear 54 12.1 46 7.7 75 75 N 3 6 30.08 1019 N/A 0 0
10:35 pm 22:35 Clear 54 12.3 46 7.8 74 74 Calm 30.08 1019 N/A 0 0
10:55 pm 22:55 Clear 54 12 48 8.7 80 80 Calm 30.08 1019 N/A 0 0
11:15 pm 23:15 Cloudy 53 11.6 47 8.4 81 81 Calm 30.07 1018 N/A 0 0
11:35 pm 23:35 Cloudy 53 11.7 49 9.3 85 85 Calm 30.07 1018 N/A 0 0
11:55 pm 23:55 undefined 53 11.7 49 9.3 85 85 NNE 3 6 30.05 1018 N/A 0 0

Powered by AerisWeather